Find Kaihan 2

NORAD ID: 58850 Int'l Des: NNA 2024-018 Owner: IRSA Country: IR operational
LEO

リアルタイム位置

3D地球を読み込み中...

Kaihan 2について

説明を読み込み中...

次回通過

Passes for default location (London). Set your location on the main map for personalized predictions.

高度履歴

Loading altitude history...

軌道要素

1 58850U 24018B 26105.97838488 .00003099 00000-0 33112-3 0 9994
2 58850 58.6924 77.2796 0419850 35.7961 327.0445 14.43335466116415
Epoch: Apr 15, 2026 • Age: 12 hours

現在のステータス

高度 900.0 km
速度 7.33 km/s
衛星直下点 17.92°N, 137.76°W
打ち上げ日 Jan 28, 2024
運用期間 2.2 years
タイプ other

技術仕様

分類 Payload
質量 5.00 kg
乾燥質量 5.00 kg
総質量 5.00 kg
長さ 0.30 m
直径 0.10 m
スパン 0.30 m
形状 Box
製造者 IEI
バスタイプ Cubesat 3U
フェーズステータス In Orbit
所有者/国 IRSA/IR

Most Searched